Showing default

KINEIS-2E, 62931

Orbit data source: Space-Track

KINEIS-2E, 62931 is a French payload satellite in SSO that was launched on Sat, 08 Feb 2025 UTC via an ELECTRON launch vehicle from the Rocket Lab Launch Complex (RLLC). Payload-class satellites include a variety of spacecraft equipped with specific instruments for various scientific and technological missions. These include communications satellites like Starlink; space stations such as the ISS; scientific satellites like the Hubble; Earth observation satellites from companies like Planet Labs, Umbra, and HawkEye 360; GPS; miniature CubeSats for education and research; and military/defense satellites.

Loading next visibility...
Identifier
62931, 2025-028D
Orbit
SSO
Country
Flag of FRFR
Related business
Manufacturer
KINEIS
Mission
Operational Commercial Communications
Bus & Motor
CUBESAT 16U, Unknown motor
Mass
28 kg wet, 28 kg dry
Launch date (UTC)
2025-02-08 (9 months ago)
Launch vehicle
ELECTRON
Launch site
Rocket Lab Launch Complex (RLLC)
Object type
Payload
Rocket body
Debris
Shape & HBR
Box + 2 Pan + 1 Ant, 1.0 m
Radar Cross Section
0.229 m², Medium (>0.1 m² and < 1m²)

Expand to show TLE details & history
Last TLE update: 8 hours ago

TLE from 8 hours ago
0 KINEIS-2E
1 62931U 25028D   25305.61039546  .00002281  00000-0  33753-3 0  9994
2 62931  97.9286 356.8203 0001515 121.1494 238.9864 14.76138206 39195
Epoch: 2025-11-01T14:38Z
TLE epoch observation values (Epoch: 2025-11-01T14:38:58.167Z)
Latitude
-0.00008°
Longitude
95.93995°
Altitude
645.104 km
Speed
7.535 km/s
True Right ascension
23h 47m 16s
True Declination
0° 00' 00"
Sunlit
Object was in full shadow at epoch
Visualization orbit readout
Latitude
Unknown
Longitude
Unknown
Altitude
Unknown
Speed
Unknown
Apparent Right ascension
Unknown
Apparent Declination
Unknown
Sunlit
N/A
Visualization observer readout
Local Sidereal Time
18:28:34
Azimuth
Unknown
Elevation
Unknown
Doppler factor
Unknown
Orbital elements
Apogee altitude
639.651 km
Perigee altitude
637.525 km
Semi-major axis
7,016.725 km
Eccentricity
0.00015
Inclination
97.9286°
RAAN
356.8203°
Arg. of periapsis
121.1494°
True anomaly
238.97152°
Mean anomaly
238.9864°
Eccentric anomaly
238.97896°
Mean motion
3.69268 °/min
Orbital period
97.49 mins
BSTAR
0.00033753
Loading maneuver chart data...
Computing Atmospheric mass density...
Loading historical data...
Loading historical data...
Loading historical data...
Loading historical data...
Loading historical data...
Loading historical data...
Loading historical data...

Documentation

Showing up to 5 results
|